Tracking 27126 objects as of 30-Mar-2023
HD Live streaming from Space Station
objects crossing your sky now

IRIDIUM 39

Track IRIDIUM 39 now!
10-day predictions
IRIDIUM 39 is classified as:


NORAD ID: 25042
Int'l Code: 1997-069D
Perigee: 727.7 km
Apogee: 756.9 km
Inclination: 86.4 °
Period: 99.5 minutes
Semi major axis: 7113 km
RCS: 4.3221 m2 (large)
Launch date: November 9, 1997
Source: United States (US)
Launch site: AIR FORCE WESTERN TEST RANGE (AFWTR)
Your satellite tracking list
Your tracking list is empty




NASA's NSSDC Master Catalog

Two Line Element Set (TLE):
1 25042U 97069D   23089.57956142  .00001631  00000-0  44131-3 0  9992
2 25042  86.3990 197.6304 0020563 123.5286 236.7885 14.47086743332060
Source of the keplerian elements: AFSPC